timestamp,gas_concentrations,,corrected_fluxes_and_quality_flags,,,,,,,,,,storage_terms,,,turbulence,,,footprint,,
ISOdate,CO2_1_1_1,H2O_1_1_1,Tau_1_1_1,QcTau_1_1_1,H_1_1_1,QcH_1_1_1,LE_1_1_1, QcLE_1_1_1,Fc_1_1_1, QcFc_1_1_1,E_1_1_1, QcE_1_1_1,Sa_1_1_1,Sw_1_1_1,Sc_1_1_1,ustar_1_1_1,MO_length_1_1_1,ZL_1_1_1,Fetchmax_1_1_1,Fetch70_1_1_1,Fetch90_1_1_1
yyyymmddHHMM,[µmol+1mol_a-1],[mmol+1mol_a-1],[kg+1m-1s-2],[#],[W+1m-2],[#],[W+1m-2],[#],[µmol+1s-1m-2],[#],[mmol+1s-1m-2],[#],[W+1m-2],[W+1m-2],[µmol+1s-1m-2],[m+1s-1],[m],[#],[m],[m],[m]
201809010030,397.62221683000780,21.594499234095601,0.39803281130192347,0,-52.482188554095671,0,29.226832804579949,0,7.4817625978789426,0,0.66208672414458303,0,-9999.,-9999.,-9999.,0.59904593220021840,343.91171326722684,6.28068168856358022E-002,99.425591622575780,181.78169165211031,272.34209905607793
201809010100,400.06278017156785,21.618489126389171,0.40526209805261521,0,-62.872403660836234,0,15.854519519954332,0,10.245735368159634,0,0.35900642081944623,0,-9.6217898601240659,0.79619464430551012,1.8341302278432663,0.60414934203056658,294.38197972576108,7.33740564559081515E-002,109.71059596481471,200.58595982361567,300.51431936329118
201809010130,401.51844780249201,21.579087377196426,0.39366874186134321,0,-60.272432565128703,0,9.2577012082121062,0,12.396940517557312,0,0.20955291399319831,0,-8.3038260055368731,-1.3093598895124527,1.0949550728388147,0.59517067084176134,293.50855408049165,7.35924036955884625E-002,102.91323203313613,188.15821064847265,281.89528646652258
201809010200,402.65957160632360,21.579270677892357,0.60217903366002046,0,-77.538240157427865,0,8.7049948187009409,0,17.067402925896019,0,0.19701272222500324,0,-3.3958979909245648,6.09675762500111549E-003,0.85900034067585784,0.73582686159702870,431.21592852351614,5.00909140206356185E-002,119.29477283096540,218.10889185137239,326.76686463715316
201809010230,404.69711667714563,21.545579140420422,0.29217703981380871,0,-58.976991058153601,0,6.97037675237340004E-002,0,14.161461182542279,0,1.57730553947581145E-003,0,-3.4730931641625800,-1.1220372459841759,1.5355121025146383,0.51225988971071190,191.35879644783861,0.11287696411639911,103.80896401277143,189.79589438630848,284.34883513085003
201809010300,405.97605369845826,21.593175713136183,0.42272403733607206,0,-63.234119337637772,0,0.38224982497682686,0,13.291673967512430,0,8.64952347496410548E-003,0,-0.77106476791756517,1.5853298480642413,0.96391336140537920,0.61613844849230293,310.55638373435903,6.95525873281549328E-002,105.50280006451695,192.89276691020018,288.98851449569969
201809010330,406.40647215305449,21.627964718532358,0.45759222985581410,0,-75.114671651108466,0,0.70316788790706608,0,16.556581230185646,0,1.59099751831853070E-002,0,-1.8074100354768108,1.1594133321918583,0.32456197260114944,0.64088939450856108,294.27439179580193,7.34008823132266258E-002,110.67380745213997,202.34701762299389,303.15270485350663
201809010400,407.29059519465642,21.706960626031922,0.38749746501718901,0,-57.835363587331379,0,0.75290189610863556,0,14.464589960868311,0,1.70374040528562046E-002,0,2.8652024207535405,2.6321351552721239,0.66662459747551628,0.58979868448460582,297.96373120351433,7.24920442926217518E-002,104.14358896030608,190.40769551355501,285.26542470422720
201809010430,407.35490387753015,21.767660382120511,0.51844255158487751,0,-66.855466871613089,0,3.8155967362786734,0,16.285974509202170,0,8.63489143780189344E-002,0,1.5421394115189198,2.0214803547492384,4.84670522691762057E-002,0.68237094772882800,399.12834710592449,5.41179301260393472E-002,107.54344410491936,196.62371504609158,294.57815467102932
201809010500,407.27253495575542,21.849327331254955,0.36875224627005326,0,-33.631835260465316,0,7.9807652651603656,0,10.728507950401122,0,0.18062743931291558,0,2.3492075475807277,2.7185915914360042,-6.20583474244348551E-002,0.57559152489883980,476.21206300466406,4.53579438196391252E-002,102.33605123283427,187.10294006314612,280.31429883422589
201809010530,408.63596380970466,21.919794224158970,0.47894413127081270,0,-43.439940777994636,0,56.525341357351358,1,11.361510972403876,0,1.2794753373612877,1,2.5971801486804322,2.3439816940319793,1.0265740904426255,0.65619787441942612,546.20398705431410,3.95456651945898657E-002,103.32042163000868,188.90268309801678,283.01064185658186
201809010600,407.80218303122552,21.935427292621586,0.87993876389914738,0,-67.746565529946125,0,37.067719310460497,0,16.998186412708115,0,0.83930768183453419,0,7.1538817661796594,0.51935704194816668,-0.62718982774011811,0.88986731692885113,873.53860066187531,2.47270126169968942E-002,113.49126245289162,207.49822394555238,310.87015059739014
201809010630,410.42552691859123,21.914133046609845,0.47388193550226987,0,-43.925777658733047,0,212.34066277446954,1,-15.142625424355753,2,4.8089105892793835,1,4.6151214932075497,-0.70688126261505635,1.9722091142257154,0.65321634038031284,532.95275154516173,4.05289210673484002E-002,103.76063212235165,189.70752827595530,284.21644659512737
201809010700,431.09553363749933,22.204458803712232,0.45163554875407841,0,-62.195241958080885,0,-10.175906588498348,2,8.0797946596161552,1,-0.23029942302349440,2,-15.412672296891653,9.6665001491938778,15.575573652274493,0.63699674556229624,349.05057416547334,6.18821500341098299E-002,100.49371540754339,183.73456259163990,275.26785558317056
201809010730,439.66493953225904,22.138625468391819,0.18547072609088369,0,-48.464377808236783,0,198.52442827596306,0,-13.878748421283035,1,4.4918140484977593,0,-5.8764852430282515,-2.1933650184574303,6.4598671019052478,0.40812262459481674,117.76467354066126,0.18341663378824763,93.226829148533767,170.44837685566989,255.36272829066093
201809010800,459.09686238002308,22.082247461110470,0.12581558066305004,0,-30.357938600176695,0,74.898784277279759,1,-5.5971116208223721,2,1.6942594609423571,1,-5.3934092235416591,-1.8794182501555572,14.653273202049409,0.33607989263654542,104.94457303891802,0.20582293466466131,99.369992364369509,181.68003847563531,272.18980407408435
201809010830,483.99219020852939,21.996436201519977,9.67572368348775663E-002,0,-18.382474508666533,0,19.196033060080758,1,2.2222690242463869,2,0.43416348183980336,1,-3.3293109368462619,-2.8616604842226954,18.777314550294985,0.29468739449089931,116.81178614139527,0.18491284752596968,102.04585964828939,186.57237729473917,279.51941912595754
201809010900,497.69219482848979,22.045143340117104,8.42773158449837689E-002,0,-28.593623589674841,0,201.06992429351376,2,-15.434558161766303,2,4.5475086661123205,2,-0.80826624499047983,1.6239921329469507,10.330906687544561,0.27506045946095342,61.054267324601142,0.35378362474094455,88.680417241864561,162.13608588657127,242.90940172121969
201809010930,452.41678281517068,21.841938390187572,0.16706435839407591,0,-38.503066468386713,0,123.74268044140209,1,-1.7232405842976375,2,2.7983076863074801,1,-2.6518000746234343,-6.7743066358484967,-34.132564953947615,0.38730535421686091,126.51500905656630,0.17073073116836593,103.81237206251750,189.80212538818600,284.35817030709973
201809011000,449.02011069055095,21.798981245823470,0.38329094273049880,0,-30.631432187739776,0,8.8399436639484890,2,17.692635600197011,0,0.19988806197196154,2,-2.0297237961060532,-1.4338469308212445,-2.5636478843444710,0.58630446614196974,551.99285698605001,3.91309411464827658E-002,93.735732759890709,171.37881496371256,256.75669412453078
201809011030,440.53771629605063,21.735245541500753,0.39183308797597227,0,-29.699089344405252,0,-50.234230699763756,2,13.566625963416422,1,-1.1360176249414031,2,2.5216355635042582,-2.1265064475819324,-6.4001137000811337,0.59288704450268359,588.74084763004578,3.66884684270676886E-002,97.207128911656142,177.72563427415722,266.26538599347936
201809011100,428.77904726778212,21.679820290016629,0.21033304481794859,0,-35.268677170763745,0,48.176011346791078,1,4.3732567114587271,1,1.0894616810054671,1,-0.22051008831036195,-1.8489247870936572,-8.8705563287278792,0.43441902949692685,194.99302367109436,0.11077319379607103,92.035000993501271,168.26933487417639,252.09812632894645
201809011130,422.67314660482020,21.633395589052551,0.17734849967108876,0,-26.456023568595143,0,41.413283978092018,0,-7.23178414174867612E-002,2,0.93646534302602935,0,-1.5295718694691853,-1.5495059475276660,-4.6083547769288344,0.39880744998036849,201.14748849716602,0.10738389110090393,102.29749525314260,187.03244743547074,280.20868803252955
201809011200,459.88678348555698,21.563578652892666,0.18333880775124109,0,-22.979452405134513,0,24.609581253434346,1,-34.265074684968070,2,0.55642858349928037,1,-2.4659163720426531,-2.3328401010885074,28.114574095430122,0.40527919889411068,243.14053648170113,8.88375106535377185E-002,105.30409414434412,192.52946911412144,288.44422819564761
201809011230,431.33946184931881,21.523788852163239,0.26632083408462731,0,-17.126068194469145,0,-70.660361349880006,2,20.174750801478684,1,-1.5976447725347804,2,-4.41971851398612128E-002,-1.3304839944286044,-21.582792088146768,0.48828114792740740,570.82702867216267,3.78398339865670813E-002,105.66019868282073,193.18054178417407,289.41965369636040
201809011300,425.40890630939288,21.442335101557017,0.39153414148768834,0,-23.263661240275894,0,34.248339227652316,0,5.3783539925761641,0,0.77437245453531633,0,0.31682382489640459,-2.7243018535084476,-4.4848703866753192,0.59195587057267107,748.91299285076298,2.88418016594676266E-002,111.87943555138034,204.55129030376585,306.45510700037562
201809011330,424.65577422330904,21.561737648269418,0.32957543387294075,0,-19.478440571333135,0,37.333411940737356,0,3.4297738727074520,0,0.84424247296258226,0,3.1171045539933293,3.9934633588456276,-0.56960891715500950,0.54308306267127160,691.00706645927323,3.12587251975274399E-002,95.721037915395840,175.00858596857964,262.19475252069884
201809011400,424.91242269796186,21.628867097135647,0.33704155161050070,0,-20.711803824265075,0,25.243985626182816,0,1.9054533650206520,0,0.57088287150132322,0,1.0316652779473545,2.2450383118245809,0.19410577253540617,0.54921078250839195,672.18380055009436,3.21340680663878414E-002,101.90247164350407,186.31021829073302,279.12665716633114
201809011430,446.70010400426719,21.668464290718038,0.32476616174121559,0,-28.146762232627477,0,45.490681337526240,1,36.598026712129702,0,1.0286774840078154,1,-1.7028357964911529,1.3248138239100418,16.483834707087063,0.53902916028002068,467.65262537769559,4.61881294530420913E-002,102.75251786963673,187.86437390044227,281.45506547390715
201809011500,480.93061944193619,21.626980070420650,0.45060365441212352,0,-32.451600330292500,0,173.95265208781956,1,-57.179741544283779,1,3.9331773623785939,1,-2.3380686824499319,-1.3888614641970478,25.912058253224529,0.63474629763267165,662.42339289919403,3.26075441047822961E-002,106.18406153350250,194.13833015270723,290.85459520431499
201809011530,466.49591662424513,21.168060797041942,0.58797181495561002,0,-74.291182941732359,0,562.59584906784903,0,-37.374942779326048,1,12.723061435959879,0,4.3550959872525272,-15.348870387654451,-10.917999478382509,0.72530339748622241,431.63353580894750,5.00424508478431521E-002,100.31724054761037,183.41191026391255,274.78446360128294
201809011600,451.72266729530998,21.122068245998378,0.85438103780976582,0,-17.801647205742803,1,278.65367924096546,0,-12.509672286828744,0,6.3018956522190184,0,0.59651459204264101,-1.5372537271670466,-11.167102675557029,0.87457854990701422,3156.9044125963510,6.84214571521834288E-003,113.02039252330790,206.63732353801183,309.58036491030049
201809011630,417.02878287984316,21.071664004588211,0.53238371417375285,0,-16.487067144539907,2,267.27785687157683,0,-18.972584261843835,0,6.0500463643851266,0,20.415975317731036,-1.6766922615387383,-26.123714380356194,0.69170747836298097,1685.5142852425133,1.28150797588121139E-002,108.83528184217056,198.98560644030115,298.11669837251793
201809011700,412.06901385997907,21.661163351597285,0.56082067640179256,0,71.494222255098890,0,239.73119333246601,0,-18.894257922752086,0,5.4284457017365009,0,8.1258503097104207,19.576983889539221,-3.7297082184780126,0.71048545794195817,-421.24636738456832,-5.12764065696517182E-002,110.81609351348517,202.60716192294467,303.54244841933092
201809011730,416.23953485713639,22.453170570864987,0.57479148173974448,0,125.48407956771688,0,201.80566978632734,0,-20.372502146235647,0,4.5727570355678049,0,15.337767607641965,26.221023870340826,3.1286399069592408,0.72025783921818309,-250.07643921888854,-8.63735906807830550E-002,110.13197942662434,201.35638318516581,301.66855394841076
201809011800,416.81685313572751,22.591991174176535,0.38947690076050684,0,126.63022277561805,0,190.33764864672554,0,-16.238331694996969,0,4.3153311777921406,0,12.739847810503356,4.5843468750680589,0.43224331248807002,0.59348716092293052,-138.64777748327501,-0.15579045255597837,108.36474137706557,198.12530839890499,296.82781513967814
201809011830,413.75577533559851,22.713699902895122,9.48063955536313230E-002,0,49.752807578134600,0,98.388046063311322,0,-11.041861030256994,0,2.2321019207074415,0,14.657766639793397,4.0082230190795087,-2.2870528726250345,0.29312640506205012,-42.523792516340734,-0.50795093103936373,85.892300913054839,157.03852001341210,235.27231914510605
201809011900,411.45007181861297,22.739822584820676,0.12478138090170517,1,58.742557211942952,0,172.58645714494602,0,-17.660636415424303,0,3.9172358518204833,0,10.435128319362969,0.85874112138426428,-1.7203664579182936,0.33651571300536326,-54.505171609615132,-0.39629267025717602,99.032481910029304,181.06296172166302,271.26531065052689
201809011930,411.94740962841246,22.303288537059867,0.19162354116277636,1,90.385825334650420,0,183.39387409066345,0,-16.615965711439472,0,4.1640372381419146,0,8.1128611984342065,-14.328851705672486,0.37065897708783035,0.41722081072052486,-67.511493377138237,-0.31994552215481759,107.29145566760018,196.16299981508203,293.88791930167008
201809012000,412.02668192554614,21.619333312338384,0.17309624855398270,1,90.742101672326200,0,210.11917368140706,0,-19.587885935158280,0,4.7727396092250602,0,8.8985934298530562,-22.410607665877286,5.89996534911841966E-002,0.39675850379971689,-57.823339789978405,-0.37355158104761677,102.56159931040258,187.51531388381085,280.93210996193028
201809012030,411.02569770032471,21.779221389477232,0.16648897981325161,1,53.501259489943365,0,180.93706107450748,0,-16.130837246500839,0,4.1117349814818471,0,10.079052554685115,5.2279750342775344,-0.74377613896238692,0.38944389825055270,-92.746023160647297,-0.23289408282861029,110.54845788724282,202.11783864016863,302.80935297535592
201809012100,409.94173704575036,22.060176877732282,0.12850462731102189,1,98.821822062225337,1,191.75779992793022,1,-18.199735845758234,1,4.3580471942115802,1,2.1281866045319129,9.1827546597394392,-0.80517052885659690,0.34221979846031952,-34.073074698769403,-0.63393163637152228,99.767017365571192,182.40592680246158,273.27731706184170
201809012130,410.54693074927735,21.876698664552300,0.14463589821123776,1,69.571496145740781,0,148.33080398446239,0,-10.438093446175266,0,3.3720295926461441,0,6.2342374682781072,-5.9899594711214279,0.44915248765873339,0.36320856106620009,-57.863630736905129,-0.37329147384841910,96.561853258071523,176.54586457929025,264.49787600838300
201809012200,410.20307288100236,22.073795610913990,0.17664399989973650,1,53.724504029850259,0,143.57210985172705,0,-12.989488328105317,0,3.2633540711137061,0,-3.3938751637156761,6.4390006986457955,-0.25533576874431008,0.40129814409997355,-101.06839662690308,-0.21371665843020177,106.16321391439156,194.10021405596532,290.79749034573342
201809012230,410.48530034385442,22.085693294342903,0.18065902839860987,0,17.552540168621338,1,106.75207680012619,1,-8.0122997802990898,0,2.4262636209719832,1,-1.6723098590083458,0.38887944874547425,0.20965899935192295,0.40574927567060926,-319.79324729530128,-6.75436400946086146E-002,115.13069657795030,210.49563239685594,315.36081465677569
201809012300,410.64492472588995,22.113789470121475,3.90065798951654691E-002,0,-7.4718131294145902,1,37.168814816824110,0,-2.9139334612284529,1,0.84433847857814237,0,-11.554723346318161,0.92058815441334207,0.11881062169311625,0.18835548857342074,75.160514043495127,0.28738494241138579,165.82032827928043,1526.0000000000000,7524.0000000000000
201809012330,408.75297134533679,22.081882614045348,6.97134438952499713E-002,1,-9.4436700371251643,0,63.654401117069682,0,-5.0936455528564570,0,1.4463409002557959,0,5.3853907131011791,-1.0444378170442368,-1.4071851289490196,0.25189676318048682,142.24626080875598,0.15184933422636873,116.56119661388963,213.11104269713937,319.27917587675614
201809020000,410.61486549971795,22.533337961280143,0.21234268846300453,1,-140.55481522758254,1,284.61420845280344,1,6.0110405705797252,2,6.4650763813062220,1,-6.4657283631115678,14.798500985419293,1.3863567329767361,0.43942094874121740,50.742874758719395,0.42567552789839458,179.53482130013916,328.24691303107306,491.77369013950698
